Hourly Data Report for May 02, 2006

TORONTO CITY
ONTARIO

43°40'00.000" N
79°24'00.000" W
112.50 m
6158355
71508
XTO

Download Data

Hourly Data (May 2006)
Hourly Data Report for May 2, 2006
TIME
LST
Temp Definition
°C
Dew Point Definition
°C
Rel Hum Definition
%
Precip. Amount Definition
mm

Wind Dir Definition
10's deg

Wind Spd Definition
km/h
Visibility Definition
km
Stn Press Definition
kPa
Hmdx Definition


Wind Chill Definition


Weather Definition


00:00 15.0 -3.5 28   LegendMM LegendMM   100.74     LegendNANA
01:00 14.1 -2.9 31   LegendMM LegendMM   100.71     LegendNANA
02:00 13.0 -1.8 36   LegendMM LegendMM   100.64     LegendNANA
03:00 13.0 -1.9 36   LegendMM LegendMM   100.59     LegendNANA
04:00 12.4 -2.3 36   LegendMM LegendMM   100.57     LegendNANA
05:00 12.4 -2.0 37   LegendMM LegendMM   100.53     LegendNANA
06:00 13.5 -1.7 35   LegendMM LegendMM   100.50     LegendNANA
07:00 14.1 -1.1 35   LegendMM LegendMM   100.49     LegendNANA
08:00 14.9 -1.6 32   LegendMM LegendMM   100.51     LegendNANA
09:00 15.0 -1.3 33   LegendMM LegendMM   100.46     LegendNANA
10:00 15.3 -2.5 29   LegendMM LegendMM   100.45     LegendNANA
11:00 15.2 -2.7 29   LegendMM LegendMM   100.38     LegendNANA
12:00 15.6 -1.6 31   LegendMM LegendMM   100.32     LegendNANA
13:00 15.5 -0.5 33   LegendMM LegendMM   100.24     LegendNANA
14:00 16.2 2.6 40   LegendMM LegendMM   100.19     LegendNANA
15:00 16.8 2.5 38   LegendMM LegendMM   100.09     LegendNANA
16:00 16.7 1.7 36   LegendMM LegendMM   100.04     LegendNANA
17:00 16.9 3.2 40   LegendMM LegendMM   100.03     LegendNANA
18:00 16.7 2.7 39   LegendMM LegendMM   99.99     LegendNANA
19:00 14.4 2.7 45   LegendMM LegendMM   99.99     LegendNANA
20:00 14.3 3.4 48   LegendMM LegendMM   99.95     LegendNANA
21:00 14.2 4.2 51   LegendMM LegendMM   99.97     LegendNANA
22:00 13.7 4.6 54   LegendMM LegendMM   100.00     LegendNANA
23:00 12.8 4.8 58   LegendMM LegendMM   100.02     LegendNANA

Notes on Data Quality.

Legend

  • E = Estimated
  • M = Missing
  • NA = Not Available*
  • [empty] = Indicates an unobserved value
Date modified: